Tiempo atmosférico en la estación meteorológica de Izaña, Santa Cruz de Tenerife (2371 m.)



Fecha
DESCASC
Temp. máxima en grados centígrados (hora)
DESCASC
Temp. mínima en grados centígrados (hora)
DESCASC
Temp. media en grados centígrados
DESCASC
Racha de viento máxima en m/sg (hora)
DESCASC
Velocidad máxima media en intervalos de 10 minutos(hora)
DESCASC
Precipitaciones diarias en mm
DESCASC
Precipitaciones de 00:00 a 06:00 en mm
DESCASC
Precipitaciones de 06:00 a 12:00 en mm
DESCASC
Precipitaciones de 12:00 a 18:00 en mm
DESCASC
Precipitaciones de 18:00 a 24:00 en mm
DESCASC
13-01-2021 -0.2 (12:30) -6.2 (23:00) -3.2 -- (--) -- (--) 0.2 0 0.2 0 0
12-01-2021 -0.2 (15:00) -3.2 (04:00) -1.7 -- (--) -- (--) 0.2 0 0.2 0 0
11-01-2021 -1 (00:10) -3.9 (05:10) -2.5 26.11 (00:10) 17.22 (00:20) 8.4 0 3.4 5 0
10-01-2021 -1 (14:20) -5.8 (00:40) -3.4 29.17 (20:20) 18.33 (21:40) 10.4 0 3.6 6.8 0
09-01-2021 -2.4 (04:30) -5.1 (-00:0) -3.8 29.72 (05:00) 18.33 (05:00) 11.8 5.6 5 1.2 0
08-01-2021 2.7 (00:10) -2.9 (-00:0) -0.1 32.78 (02:00) 18.33 (02:00) 53.4 11.2 27.6 9.4 5.2
07-01-2021 6.8 (13:40) 2.6 (00:00) 4.7 34.44 (14:20) 20 (14:20) 9.8 0 6.4 3 0.4
06-01-2021 10.1 (14:40) 4 (00:00) 7.1 34.17 (04:40) 25.28 (04:40) 2.6 0 2.6 0 0
05-01-2021 10.1 (15:00) 1.4 (00:00) 5.8 23.61 (01:00) 20.28 (01:40) 0 0 0 0 0
04-01-2021 8.9 (12:30) 2.1 (00:00) 5.5 31.39 (04:40) 26.11 (04:40) 0 0 0 0 0
03-01-2021 6.7 (14:40) 2.7 (00:00) 4.7 14.72 (18:40) 11.94 (18:40) 0.4 0 0.4 0 0
02-01-2021 7.7 (13:40) 2.7 (00:00) 5.2 9.17 (23:59) 8.89 (23:59) 0 0 0 0 0
01-01-2021 8.7 (12:50) 1.4 (00:00) 5 12.5 (00:50) 10 (00:20) 0 0 0 0 0
31-12-2020 4.8 (15:30) -0.4 (00:00) 2.2 18.61 (11:50) 16.11 (11:50) 0 0 0 0 0
30-12-2020 5.6 (12:40) -0.2 (00:00) 2.7 11.11 (19:40) 10.28 (21:20) 0 0 0 0 0
29-12-2020 6.5 (12:20) 0.7 (00:00) 3.6 8.06 (03:10) 7.78 (03:10) 0 0 0 0 0
28-12-2020 6.7 (12:20) 1 (00:00) 3.8 15 (02:50) 12.5 (02:50) 0 0 0 0 0
27-12-2020 5.2 (11:30) 1.4 (00:00) 3.3 15.28 (03:40) 13.61 (05:30) 1.6 1.2 0 0.4 0
26-12-2020 7.8 (15:20) 2 (00:00) 4.9 16.11 (04:30) 13.33 (01:30) 3.8 0 1.2 0 2.6
25-12-2020 6.5 (13:50) -1.1 (-00:0) 2.7 23.89 (05:30) 18.33 (05:50) 0.8 0 0 0 0.8
24-12-2020 3.5 (15:50) -1.9 (-00:0) 0.8 26.94 (01:40) 20.56 (01:40) 0 0 0 0 0
23-12-2020 5.6 (15:00) -0.5 (23:20) 2.5 24.44 (23:10) 19.72 (23:10) 0 0 0 0 0
21-12-2020 12.1 (14:30) 4.7 (00:00) 8.4 9.72 (00:10) 7.78 (00:20) 0 0 0 0 0
20-12-2020 10.7 (13:40) 3.2 (00:00) 6.9 9.72 (00:20) 7.78 (23:59) 0 0 0 0 0
19-12-2020 11.4 (14:30) 3.3 (00:00) 7.3 11.67 (10:20) 8.89 (20:00) 0 0 0 0 0
18-12-2020 10.4 (14:00) 3.5 (00:00) 6.9 12.5 (19:30) 10.83 (19:10) 0 0 0 0 0

Gráficas

Temp. máximas Temp. mínimas Temp. medias Precipitaciones Rachas de viento máximas Velocidades máximas media en intervalos de 10 minutos

Datos horarios

Fecha y hora oficial Temperatura (ºC) Velocidad del viento (km/h) Dirección del viento Racha (km/h) Dirección de racha Precipitación (mm) Presión (hPa) Tendencia (hPa) Humedad (%)
2021-01-16 23:00:00 4.2 -- -- -- -- 0 772.8 0.5 6
2021-01-16 22:00:00 4 -- -- -- -- 0 772.8 0.8 5
2021-01-16 21:00:00 3.6 -- -- -- -- 0 772.5 0.6 8
2021-01-16 20:00:00 3.5 -- -- -- -- 0 772.3 0.7 7
2021-01-16 19:00:00 3.2 -- -- -- -- 0 772 0.5 7
2021-01-16 18:00:00 5.2 -- -- -- -- 0 771.9 0.5 6
2021-01-16 17:00:00 7.2 -- -- -- -- 0 771.6 -0.2 17
2021-01-16 16:00:00 8.3 -- -- -- -- 0 771.5 -0.9 12
2021-01-16 15:00:00 9.1 -- -- -- -- 0 771.4 -1.4 8
2021-01-16 14:00:00 8.3 -- -- -- -- 0 771.8 -1.2 14
2021-01-16 13:00:00 6.9 -- -- -- -- 0 772.4 -- 17
2021-01-16 12:00:00 7 -- -- -- -- 0 772.8 -- 18
2021-01-16 11:00:00 6.2 -- -- -- -- 0 773 -- 15
2021-01-16 10:00:00 5.6 -- -- -- -- 0 772.5 -- 13
2021-01-16 09:00:00 4.1 -- -- -- -- 0 771.7 -- 11
2021-01-16 08:00:00 3 -- -- -- -- 0 771.5 -- 8
2021-01-16 07:00:00 2.1 -- -- -- -- 0 771.2 -- 8
2021-01-16 06:00:00 1.9 -- -- -- -- 0 771.2 -- 10
2021-01-16 05:00:00 1.8 -- -- -- -- 0 770.9 -- 12
2021-01-16 04:00:00 2.1 -- -- -- -- 0 771.2 -- 9
2021-01-16 03:00:00 2.3 -- -- -- -- 0 771.7 -- 10
2021-01-16 02:00:00 2.3 -- -- -- -- 0 771.9 -- 10
2021-01-16 01:00:00 2.1 -- -- -- -- 0 771.8 -- 12
2021-01-16 00:00:00 2.1 -- -- -- -- 0 772 -- 14
2021-01-15 23:00:00 2.1 -- -- -- -- 0 772.4 -- 12
2021-01-15 22:00:00 1.6 -- -- -- -- 0 772.3 -- 14
2021-01-15 21:00:00 1.6 -- -- -- -- 0 772.4 -- 15
2021-01-15 20:00:00 2.1 -- -- -- -- 0 772.3 -- 13
2021-01-15 19:00:00 2.3 -- -- -- -- 0 772.3 -- 11
2021-01-15 18:00:00 3.2 -- -- -- -- 0 772.1 -- 12
2021-01-15 17:00:00 3.7 -- -- -- -- 0 771.8 -- 14
2021-01-15 16:00:00 4.5 -- -- -- -- 0 771.7 -- 16
2021-01-15 15:00:00 4.9 -- -- -- -- 0 771.7 -- 15
2021-01-15 14:00:00 5.2 -- -- -- -- 0 772.1 -- 19
2021-01-15 13:00:00 5.2 -- -- -- -- 0 772.7 -- 24
2021-01-15 12:00:00 4.8 -- -- -- -- 0 773.3 -- 20
2021-01-15 11:00:00 4.5 -- -- -- -- 0 773.6 -- 21
2021-01-15 10:00:00 3.6 -- -- -- -- 0 773 -- 22
2021-01-15 09:00:00 2.3 -- -- -- -- 0 772.5 -- 17
2021-01-15 08:00:00 0.4 -- -- -- -- 0 772.3 -- 19
2021-01-15 07:00:00 0.4 -- -- -- -- 0 772 -- 18
2021-01-15 06:00:00 0.5 -- -- -- -- 0 771.8 -- 18
2021-01-15 05:00:00 0.6 -- -- -- -- 0 771.9 -- 20
2021-01-15 04:00:00 0.5 -- -- -- -- 0 772.1 -- 25
2021-01-15 03:00:00 0.3 -- -- -- -- 0 772.1 -- 19
2021-01-15 02:00:00 0.6 -- -- -- -- 0 772.1 -- 31
2021-01-15 01:00:00 -0.4 -- -- -- -- 0 772.3 -- 99
2021-01-15 00:00:00 -0.9 -- -- -- -- 0 772.5 -- 61
2021-01-14 23:00:00 -0.3 -- -- -- -- 0 772.5 -- 23
2021-01-14 22:00:00 0 -- -- -- -- 0 772.5 -- 28
2021-01-14 21:00:00 0.4 -- -- -- -- 0 772.2 -- 31
2021-01-14 20:00:00 0.7 -- -- -- -- 0 772 -- 36
2021-01-14 19:00:00 1.1 -- -- -- -- 0 772 -- 57
2021-01-14 18:00:00 0 25 Nordeste -- -- 0 771.9 -- 94
2021-01-14 17:00:00 -0.2 12 Nordeste 27 Noroeste 0 771.6 -- 100
2021-01-14 16:00:00 -0.1 13 Nordeste -- -- 0 771.5 -- 100
2021-01-14 15:00:00 0 -- -- -- -- 0 771.6 -- 100
2021-01-14 14:00:00 0 16 Norte -- -- 0 771.8 -- 100
2021-01-14 13:00:00 0.1 -- -- -- -- 0 772.7 -- 100
2021-01-14 12:00:00 -0.2 14 Nordeste -- -- 0 773.2 -- 100
2021-01-14 11:00:00 -0.4 -- -- -- -- 0 773.7 -- 100
2021-01-14 10:00:00 -2.3 13 Norte 31 Noroeste 0 773 -- 99
2021-01-14 09:00:00 -3.7 18 Norte 28 Noroeste 0 772.6 -- 98
2021-01-14 08:00:00 -5.3 13 Nordeste 21 Noroeste 0 772.3 -- 97
2021-01-14 07:00:00 -5.5 10 Nordeste 19 Noroeste 0 772.1 -- 96
2021-01-14 06:00:00 -5.4 13 Nordeste 23 Noroeste 0 772.1 -- 97
2021-01-14 05:00:00 -5.2 18 Nordeste -- -- 0 772.1 -- 97
2021-01-14 04:00:00 -5 -- -- -- -- 0 772.3 -- 97
2021-01-14 03:00:00 -5.4 -- -- -- -- 0 772.5 -- 97
2021-01-14 02:00:00 -5.5 -- -- -- -- 0 772.4 -- 97
2021-01-14 01:00:00 -6 -- -- -- -- 0 772.5 -- 96
2021-01-14 00:00:00 -6.1 -- -- -- -- 0 772.9 -- 96
2021-01-13 23:00:00 -6.2 -- -- -- -- 0 772.8 -- 96
2021-01-13 22:00:00 -6 -- -- -- -- 0 772.6 -- 96
2021-01-13 21:00:00 -5.6 -- -- -- -- 0 772.4 -- 96
2021-01-13 20:00:00 -5.3 -- -- -- -- 0 772.2 -- 97
2021-01-13 19:00:00 -4.6 27 Nordeste 37 Norte 0 771.7 -- 97
2021-01-13 18:00:00 -3 20 Nordeste 36 Norte 0 771.7 -- 98
2021-01-13 17:00:00 -1.5 21 Nordeste 39 Noroeste 0 771.4 -- 100
2021-01-13 16:00:00 -0.5 24 Nordeste 40 Norte 0 771.1 -- 100
2021-01-13 15:00:00 -0.2 21 Norte -- -- 0 771.1 -- 100
2021-01-13 14:00:00 -0.2 -- -- -- -- 0 771.3 -- 100
2021-01-13 13:00:00 -0.2 23 Nordeste -- -- 0 771.7 -- 100
2021-01-13 12:00:00 -0.4 32 Nordeste -- -- 0 772.2 -- 100
2021-01-13 11:00:00 -0.4 27 Nordeste 37 Norte 0 772.5 -- 100
2021-01-13 10:00:00 -0.5 30 Nordeste -- -- 0.2 772.1 -- 100
2021-01-13 09:00:00 -0.8 33 Nordeste 39 Norte 0 771.6 -- 100
2021-01-13 08:00:00 -0.8 31 Nordeste -- -- 0 770.9 -- 100
2021-01-13 07:00:00 -0.9 -- -- -- -- 0 770.7 -- 100
2021-01-13 06:00:00 -1.1 23 Nordeste 40 Norte 0 770.4 -- 100
2021-01-13 05:00:00 -1.6 31 Nordeste 42 Norte 0 770.2 -- 100
2021-01-13 04:00:00 -1.4 27 Norte 45 Noroeste 0 770.2 -- 100
2021-01-13 03:00:00 -1.1 28 Norte 51 Noroeste 0 770.1 -- 100
2021-01-13 02:00:00 -1.3 32 Norte 53 Norte 0 770 -- 100
2021-01-13 01:00:00 -1.4 24 Norte 52 Noroeste 0 770.6 -- 100
2021-01-13 00:00:00 -1.7 29 Norte 55 Noroeste 0 770.3 -- 100
2021-01-12 23:00:00 -2 23 Noroeste 58 Noroeste 0 770.1 -- 100
2021-01-12 22:00:00 -2.1 24 Norte 47 Noroeste 0 770.1 -- 99
2021-01-12 21:00:00 -1.8 23 Norte 44 Noroeste 0 769.6 -- 100
2021-01-12 20:00:00 -1.7 20 Nordeste 39 Noroeste 0 769.9 -- 100
2021-01-12 19:00:00 -1.2 18 Norte 42 Noroeste 0 769.1 -- 100
2021-01-12 18:00:00 -0.6 25 Norte 51 Noroeste 0 768.7 -- 100
2021-01-12 17:00:00 -0.4 22 Norte 40 Noroeste 0 768.4 -- 100
2021-01-12 16:00:00 -0.2 26 Nordeste 29 Norte 0 768.9 -- 100
2021-01-12 15:00:00 -0.2 18 Nordeste -- -- 0 769 -- 100
2021-01-12 14:00:00 -0.4 23 Nordeste -- -- 0 769.2 -- 100
2021-01-12 13:00:00 -0.4 -- -- -- -- 0 769.7 -- 100
2021-01-12 12:00:00 -0.7 -- -- -- -- 0 770.4 -- 100
2021-01-12 11:00:00 -1.4 -- -- -- -- 0 770.6 -- 100
2021-01-12 10:00:00 -1.5 -- -- -- -- 0.2 770.1 -- 100
2021-01-12 09:00:00 -1.5 34 Nordeste -- -- 0 769.3 -- 100
2021-01-12 08:00:00 -1.6 26 Nordeste -- -- 0 768.6 -- 100
2021-01-12 07:00:00 -1.9 30 Nordeste -- -- 0 768.3 -- 100
2021-01-12 06:00:00 -2.4 -- -- -- -- 0 768 -- 99
2021-01-12 05:00:00 -3.2 -- -- -- -- 0 768.1 -- 98
2021-01-12 04:00:00 -3.2 27 Nordeste -- -- 0 768.4 -- 98
2021-01-12 03:00:00 -2.7 -- -- -- -- 0 768.9 -- 99
2021-01-12 02:00:00 -2.5 -- -- -- -- 0 768.9 -- 99
2021-01-12 01:00:00 -2.6 16 Nordeste 32 Norte 0 768.9 -- 99
2021-01-12 00:00:00 -2.4 17 Nordeste 41 Noroeste 0 769.3 -- 99
2021-01-11 23:00:00 -2.1 32 Norte 51 Norte 0 768.8 -- 99
2021-01-11 22:00:00 -1.9 19 Norte 50 Noroeste 0 768.8 -- 100
2021-01-11 21:00:00 -1.9 35 Norte 60 Noroeste 0 768.3 -- 99
2021-01-11 20:00:00 -2.4 31 Noroeste 59 Noroeste 0 767.2 -- 99
2021-01-11 19:00:00 -2 21 Noroeste 49 Oeste 0 767.2 -- 99
2021-01-11 18:00:00 -2.2 15 Norte 44 Norte 0 767.3 -- 99
2021-01-11 17:00:00 -1.6 28 Norte 48 Norte 0 767.2 -- 100
2021-01-11 16:00:00 -1.3 27 Noroeste 53 Noroeste 0 766.9 -- 100
2021-01-11 15:00:00 -1.1 19 Norte 42 Norte 1 767 -- 100
2021-01-11 14:00:00 -1.2 4 Noroeste 34 Oeste 2 767.4 -- 100
2021-01-11 13:00:00 -1.5 11 Este -- -- 2 768.3 -- 99
2021-01-11 12:00:00 -2.6 13 Nordeste 36 Norte 2.4 769 -- 99
2021-01-11 11:00:00 -2.3 18 Nordeste 53 Noroeste 1 769 -- 99
2021-01-11 10:00:00 -2.7 28 Noroeste 69 Norte 0 767.8 -- 99
2021-01-11 09:00:00 -2.3 37 Norte 74 Noroeste 0 766.8 -- 99
2021-01-11 08:00:00 -2.9 33 Norte 77 Noroeste 0 766.2 -- 99
2021-01-11 07:00:00 -3.1 25 Norte 69 Noroeste 0 765.6 -- 98
2021-01-11 06:00:00 -2.7 27 Norte 67 Oeste 0 765.3 -- 99
2021-01-11 05:00:00 -3.8 27 Noroeste 70 Oeste 0 765.7 -- 98
2021-01-11 04:00:00 -2.2 36 Noroeste 89 Oeste 0 765.5 -- 99
2021-01-11 03:00:00 -1.4 48 Noroeste 81 Noroeste 0 766.1 -- 100
2021-01-11 02:00:00 -1.5 45 Noroeste 78 Noroeste 0 766.2 -- 100
2021-01-11 01:00:00 -1.6 51 Noroeste 94 Noroeste 0 765.8 -- 100
2021-01-11 00:00:00 -1.1 51 Noroeste 97 Oeste 0 766.5 -- 100
2021-01-10 23:00:00 -2 54 Noroeste 92 Noroeste 0 766 -- 99
2021-01-10 22:00:00 -2.9 57 Noroeste 98 Noroeste 0 765.8 -- 98
2021-01-10 21:00:00 -2.8 58 Noroeste 105 Noroeste 0 765.6 -- 98
2021-01-10 20:00:00 -2 59 Noroeste 99 Noroeste 0 765.7 -- 99
2021-01-10 19:00:00 -1.7 52 Noroeste 91 Noroeste 0 765.4 -- 100
2021-01-10 18:00:00 -1.6 56 Noroeste 91 Noroeste 0 765.6 -- 99
2021-01-10 17:00:00 -2.1 44 Noroeste 86 Oeste 0 765.8 -- 99
2021-01-10 16:00:00 -1.4 47 Noroeste 80 Oeste 0 765.9 -- 100
2021-01-10 15:00:00 -1.8 42 Noroeste 80 Noroeste 3 766.3 -- 99
2021-01-10 14:00:00 -1.3 42 Noroeste 86 Noroeste 1.6 766.8 -- 100
2021-01-10 13:00:00 -1.5 48 Noroeste 86 Noroeste 2.2 767.1 -- 100
2021-01-10 12:00:00 -1.6 40 Noroeste 90 Noroeste 2 768 -- 100
2021-01-10 11:00:00 -1.2 52 Noroeste 95 Noroeste 1.6 767.4 -- 100
2021-01-10 10:00:00 -2.1 53 Noroeste 91 Noroeste 0 766.6 -- 99
2021-01-10 09:00:00 -3 37 Noroeste 93 Noroeste 0 766.6 -- 99
2021-01-10 08:00:00 -2.8 51 Noroeste 96 Noroeste 0 765.2 -- 99
2021-01-10 07:00:00 -1.8 54 Noroeste 89 Noroeste 0 764.8 -- 99
2021-01-10 06:00:00 -1.8 47 Noroeste 82 Noroeste 0 764.5 -- 99
2021-01-10 05:00:00 -2.4 48 Noroeste 76 Noroeste 0 764.6 -- 99
2021-01-10 04:00:00 -2.3 40 Noroeste 78 Noroeste 0 766.4 -- 98
2021-01-10 03:00:00 -2.2 47 Noroeste 74 Noroeste 0 765.4 -- 99
2021-01-10 02:00:00 -2.9 26 Oeste 62 Oeste 0 765.9 -- 98
2021-01-10 01:00:00 -4.4 32 Norte 51 Noroeste 0 767.2 -- 99
2021-01-10 00:00:00 -5.1 12 Oeste 49 Oeste 0 767.4 -- 96
2021-01-09 23:00:00 -4.6 33 Noroeste 92 Oeste 0 766.6 -- 97
2021-01-09 22:00:00 -3.7 55 Noroeste 92 Noroeste 0 764.9 -- 97
2021-01-09 21:00:00 -4.4 55 Noroeste 86 Noroeste 0 764.4 -- 97
2021-01-09 20:00:00 -3.8 54 Noroeste 87 Noroeste 0 764.1 -- 97
2021-01-09 19:00:00 -3.7 50 Noroeste 81 Noroeste 0 764.1 -- 97
2021-01-09 18:00:00 -3.5 61 Norte 95 Noroeste 0.2 764.5 -- 97
2021-01-09 17:00:00 -3.1 59 Noroeste 89 Noroeste 0.2 763.3 -- 98
2021-01-09 16:00:00 -3.9 40 Noroeste 73 Noroeste 0 764.2 -- 99
2021-01-09 15:00:00 -3.1 47 Noroeste 82 Noroeste 0.2 763.1 -- 98
2021-01-09 14:00:00 -3.4 53 Norte 90 Norte 0.4 763.4 -- 98
2021-01-09 13:00:00 -3.3 41 Noroeste 84 Noroeste 0.2 763.5 -- 98
2021-01-09 12:00:00 -3.4 55 Noroeste 86 Noroeste 0.4 763.9 -- 98
2021-01-09 11:00:00 -3.3 46 Noroeste 93 Noroeste 0.8 763.8 -- 97
2021-01-09 10:00:00 -2.7 55 Noroeste 101 Noroeste 1 762.7 -- 99
2021-01-09 09:00:00 -3.6 48 Noroeste 90 Noroeste 0.4 762.4 -- 98
2021-01-09 08:00:00 -3.4 37 Noroeste 91 Noroeste 1.2 762 -- 98
2021-01-09 07:00:00 -3.4 42 Noroeste 93 Noroeste 1.2 761.7 -- 98
2021-01-09 06:00:00 -3.5 51 Noroeste 102 Noroeste 1 760.2 -- 98
2021-01-09 05:00:00 -2.6 66 Noroeste 107 Noroeste 1.8 760.3 -- 98
2021-01-09 04:00:00 -3.2 51 Noroeste 91 Oeste 1.2 760.3 -- 98
2021-01-09 03:00:00 -3.1 51 Noroeste 88 Noroeste 0.2 760.6 -- 98
2021-01-09 02:00:00 -3.2 55 Noroeste 93 Oeste 1 760 -- 98
2021-01-09 01:00:00 -3 47 Noroeste 81 Oeste 0.4 761 -- 98
2021-01-09 00:00:00 -2.6 39 Noroeste 71 Noroeste 0.2 761.5 -- 99
2021-01-08 23:00:00 -2.7 32 Noroeste 68 Oeste 0.2 761.9 -- 98
2021-01-08 22:00:00 -2.6 41 Noroeste 95 Oeste 0.8 761.3 -- 98
2021-01-08 21:00:00 -2.3 37 Oeste 77 Oeste 0.8 760.5 -- 99
2021-01-08 20:00:00 -1.9 31 Noroeste 72 Oeste 2 761.1 -- 99
2021-01-08 19:00:00 -1.8 29 Noroeste 67 Oeste 1.2 760.5 -- 99
2021-01-08 18:00:00 -2 36 Noroeste 71 Oeste 1.2 759.8 -- 99
2021-01-08 17:00:00 -1.1 24 Noroeste 54 Oeste 0.6 760 -- 100
2021-01-08 16:00:00 -1.3 24 Noroeste 59 Oeste 0.6 759.7 -- 100
2021-01-08 15:00:00 -0.8 20 Noroeste 64 Noroeste 1.8 759.6 -- 100
2021-01-08 14:00:00 -0.5 27 Noroeste 75 Oeste 2.8 759.1 -- 100
2021-01-08 13:00:00 -0.2 44 Noroeste 85 Oeste 2.4 758.7 -- 100
2021-01-08 12:00:00 -0.2 47 Noroeste 99 Oeste 6.8 758.8 -- 100
2021-01-08 11:00:00 -0.2 36 Noroeste 77 Noroeste 3.2 758.9 -- 100
2021-01-08 10:00:00 -0.2 42 Noroeste 91 Oeste 3.2 758.3 -- 100
2021-01-08 09:00:00 0 50 Noroeste 98 Noroeste 6.6 757.3 -- 100
2021-01-08 08:00:00 0.1 57 Noroeste 104 Noroeste 4.8 755.6 -- 100
2021-01-08 07:00:00 1.1 46 Noroeste 100 Oeste 3 755.1 -- 99
2021-01-08 06:00:00 1.2 46 Noroeste 100 Noroeste 4.4 755.1 -- 99
2021-01-08 05:00:00 1.5 39 Noroeste 95 Noroeste 3.6 755.4 -- 99
2021-01-08 04:00:00 2.1 50 Noroeste 103 Noroeste 3 754.3 -- 98
2021-01-08 03:00:00 1.1 59 Oeste 111 Oeste 0 753.8 -- 98
2021-01-08 02:00:00 1.3 66 Oeste 118 Oeste 0.2 752.9 -- 79
2021-01-08 01:00:00 1.9 51 Oeste 94 Oeste 0 754.7 -- 81
2021-01-08 00:00:00 2.6 33 Oeste 81 Oeste 0 755.6 -- 82
2021-01-07 23:00:00 3.3 10 Noroeste 69 Oeste 0 756.8 -- 80
2021-01-07 22:00:00 4.6 28 Noroeste 97 Oeste 0 756.9 -- 84
2021-01-07 21:00:00 3.6 45 Sudoeste 104 Sudoeste 0 755.9 -- 88
2021-01-07 20:00:00 4.3 55 Sudoeste 118 Sudoeste 0 755.4 -- 77
2021-01-07 19:00:00 3.6 59 Sudoeste 114 Sudoeste 0.4 754.9 -- 92
2021-01-07 18:00:00 4.1 57 Sudoeste 112 Oeste 0.8 755.7 -- 92
2021-01-07 17:00:00 4.2 58 Sudoeste 121 Sudoeste 1.8 755.7 -- 93
2021-01-07 16:00:00 5.6 50 Sudoeste 118 Sudoeste 0.4 756 -- 88
2021-01-07 15:00:00 6 68 Sudoeste 124 Sudoeste 0 754.8 -- 75
2021-01-07 14:00:00 5.9 36 Oeste 100 Oeste 0 757.2 -- 77
2021-01-07 13:00:00 6.1 40 Oeste 110 Sudoeste 0 757.2 -- 81
2021-01-07 12:00:00 5.9 50 Sudoeste 117 Sudoeste 0 757.1 -- 82
2021-01-07 11:00:00 5.6 64 Sudoeste 119 Sudoeste 0.2 756.5 -- 84
2021-01-07 10:00:00 5.6 49 Sudoeste 110 Oeste 1.6 757.1 -- 92
2021-01-07 09:00:00 4.1 18 Sudoeste 117 Oeste 3 758.3 -- 91
2021-01-07 08:00:00 3.8 67 Oeste 113 Oeste 0.4 756.2 -- 81
2021-01-07 07:00:00 4.2 58 Sudoeste 109 Sudoeste 1.2 755.6 -- 89
2021-01-07 06:00:00 4.9 46 Sudoeste 99 Sudoeste 0 756.3 -- 92
2021-01-07 05:00:00 4.2 31 Oeste 78 Oeste 0 757.3 -- 86
2021-01-07 04:00:00 5.3 8 Noroeste 75 Oeste 0 758.5 -- 75
2021-01-07 03:00:00 5.2 25 Noroeste 67 Noroeste 0 758.5 -- 69
2021-01-07 02:00:00 6.5 23 Oeste 80 Oeste 0 759.4 -- 56
2021-01-07 01:00:00 6.3 19 Oeste 58 Oeste 0 759.6 -- 49
2021-01-07 00:00:00 5.6 13 Noroeste 53 Oeste 0 759.9 -- 57
2021-01-06 23:00:00 5.9 10 Noroeste 60 Oeste 0 760.1 -- 52
2021-01-06 22:00:00 6 11 Oeste 74 Oeste 0 760.5 -- 66
2021-01-06 21:00:00 5.2 23 Noroeste 58 Noroeste 0 760 -- 84
2021-01-06 20:00:00 5 17 Oeste 79 Oeste 0 760 -- 86
2021-01-06 19:00:00 5.8 24 Oeste 73 Oeste 0 759.5 -- 70
2021-01-06 18:00:00 6.6 9 Norte 64 Noroeste 0 759.5 -- 74
2021-01-06 17:00:00 8.4 31 Noroeste 101 Noroeste 0 759.3 -- 54
2021-01-06 16:00:00 8.5 13 Norte 54 Noroeste 0 759.1 -- 51
2021-01-06 15:00:00 9.5 14 Norte 79 Oeste 0 759.3 -- 42
2021-01-06 14:00:00 8.6 15 Noroeste 89 Oeste 0 759.3 -- 26
2021-01-06 13:00:00 7.4 16 Noroeste 61 Oeste 0 759.4 -- 73
2021-01-06 12:00:00 7.1 15 Noroeste 100 Oeste 1.4 760.2 -- 95
2021-01-06 11:00:00 6.7 13 Norte 86 Oeste 0.2 760.9 -- 85
2021-01-06 10:00:00 7.2 18 Norte 112 Oeste 0 760.4 -- 79
2021-01-06 09:00:00 6.2 50 Oeste 118 Oeste 0 757.8 -- 77
2021-01-06 08:00:00 5.9 66 Oeste 95 Oeste 0.6 757.9 -- 81
2021-01-06 07:00:00 5.7 45 Oeste 73 Oeste 0.4 758.8 -- 92
2021-01-06 06:00:00 6.1 24 Oeste 87 Oeste 0 759.1 -- 87
2021-01-06 05:00:00 6 62 Oeste 123 Oeste 0 758.8 -- 69
2021-01-06 04:00:00 4.4 72 Oeste 103 Oeste 0 758.3 -- 77
2021-01-06 03:00:00 6.7 29 Oeste 73 Oeste 0 760.1 -- 30
2021-01-06 02:00:00 6.2 27 Oeste 54 Sudoeste 0 760.7 -- 41
2021-01-06 01:00:00 6.5 26 Sudoeste 42 Oeste 0 761.3 -- 58
2021-01-06 00:00:00 6.5 26 Sudoeste 54 Sudoeste 0 761.7 -- 55
2021-01-05 23:00:00 6.8 25 Sudoeste 37 Sudoeste 0 762.1 -- 42
2021-01-05 22:00:00 7.1 6 Sur 36 Oeste 0 762.5 -- 42
2021-01-05 21:00:00 6.3 22 Oeste 40 Oeste 0 762.5 -- 46
2021-01-05 20:00:00 5.3 26 Oeste 40 Oeste 0 762.3 -- 63
2021-01-05 19:00:00 5.1 24 Oeste 40 Oeste 0 762.5 -- 63
2021-01-05 18:00:00 7.4 19 Oeste 44 Sur 0 762.3 -- 55
2021-01-05 17:00:00 8.2 17 Oeste 36 Oeste 0 762.1 -- 74
2021-01-05 16:00:00 9 22 Oeste 39 Oeste 0 762.1 -- 64
2021-01-05 15:00:00 9.9 20 Oeste 43 Oeste 0 762 -- 62
2021-01-05 14:00:00 8.2 26 Oeste 71 Oeste 0 762.3 -- 81
2021-01-05 13:00:00 8.4 22 Oeste 39 Oeste 0 762.9 -- 73
2021-01-05 12:00:00 8.3 27 Oeste 62 Oeste 0 763.6 -- 65
2021-01-05 11:00:00 7.3 46 Oeste 62 Oeste 0 763.7 -- 49
2021-01-05 10:00:00 5.3 48 Oeste 68 Oeste 0 763.2 -- 62
2021-01-05 09:00:00 4.6 44 Oeste 57 Oeste 0 762.7 -- 62
2021-01-05 08:00:00 4.1 42 Oeste 54 Oeste 0 762.3 -- 57
2021-01-05 07:00:00 3.6 45 Oeste 59 Oeste 0 761.9 -- 64
2021-01-05 06:00:00 3 46 Oeste 73 Oeste 0 761.3 -- 70
2021-01-05 05:00:00 2.6 52 Noroeste 73 Noroeste 0 761.1 -- 77
2021-01-05 04:00:00 2.9 50 Noroeste 76 Oeste 0 761.5 -- 75
2021-01-05 03:00:00 2.8 58 Noroeste 82 Oeste 0 761.5 -- 91
2021-01-05 02:00:00 2.1 64 Noroeste 85 Noroeste 0 761.4 -- 93
2021-01-05 01:00:00 1.9 71 Oeste 85 Oeste 0 760.9 -- 93
2021-01-05 00:00:00 2.9 63 Noroeste 88 Oeste 0 761.6 -- 77
2021-01-04 23:00:00 3.2 40 Noroeste 89 Oeste 0 762.9 -- 90
2021-01-04 22:00:00 5.1 31 Noroeste 62 Oeste 0 763.5 -- 98
2021-01-04 21:00:00 5.1 28 Noroeste 67 Oeste 0 763.4 -- 96
2021-01-04 20:00:00 5.6 18 Noroeste 60 Oeste 0 763.6 -- 87
2021-01-04 19:00:00 8.5 31 Oeste 87 Oeste 0 763.2 -- 54
2021-01-04 18:00:00 7.5 31 Oeste 95 Oeste 0 763.1 -- 66
2021-01-04 17:00:00 7.1 33 Oeste 72 Noroeste 0 762.9 -- 77
2021-01-04 16:00:00 7 21 Oeste 68 Oeste 0 762.7 -- 75
2021-01-04 15:00:00 7.3 13 Noroeste 67 Oeste 0 763.1 -- 88
2021-01-04 14:00:00 7.6 13 Oeste 36 Oeste 0 763.2 -- 76
2021-01-04 13:00:00 8.5 8 Oeste 37 Sudoeste 0 764 -- 71
2021-01-04 12:00:00 8.1 17 Noroeste 73 Oeste 0 764.4 -- 76
2021-01-04 11:00:00 7.8 45 Oeste 71 Oeste 0 764.5 -- 76
2021-01-04 10:00:00 7.5 23 Noroeste 57 Noroeste 0 764.7 -- 63
2021-01-04 09:00:00 6.1 31 Noroeste 68 Oeste 0 764.5 -- 82
2021-01-04 08:00:00 3.9 14 Oeste 48 Oeste 0 764.3 -- 93
2021-01-04 07:00:00 4.6 37 Noroeste 80 Oeste 0 764 -- 86
2021-01-04 06:00:00 5.1 55 Noroeste 110 Oeste 0 763.8 -- 78
2021-01-04 05:00:00 3.6 82 Oeste 113 Oeste 0 761.3 -- 95
2021-01-04 04:00:00 5.6 79 Noroeste 112 Oeste 0 762.5 -- 71
2021-01-04 03:00:00 2.9 72 Oeste 87 Noroeste 0 762.2 -- 97
2021-01-04 02:00:00 4.8 48 Oeste 73 Oeste 0 763.8 -- 78
2021-01-04 01:00:00 4 49 Noroeste 63 Noroeste 0 763.8 -- 90
2021-01-04 00:00:00 5.5 35 Oeste 47 Oeste 0 764.6 -- 73
2021-01-03 23:00:00 3.7 33 Oeste 44 Oeste 0 765 -- 98
2021-01-03 22:00:00 3.8 31 Oeste 42 Noroeste 0 764.9 -- 96
2021-01-03 21:00:00 3 37 Oeste 47 Oeste 0 765 -- 97
2021-01-03 20:00:00 3.2 38 Oeste 47 Oeste 0 764.5 -- 98
2021-01-03 19:00:00 2.9 37 Noroeste 53 Oeste 0 764.4 -- 97
2021-01-03 18:00:00 4.3 30 Noroeste 42 Oeste 0 764.3 -- 87
2021-01-03 17:00:00 5.3 31 Noroeste 39 Noroeste 0 764.1 -- 83
2021-01-03 16:00:00 5.1 37 Oeste 46 Oeste 0 764 -- 84
2021-01-03 15:00:00 6 29 Noroeste 39 Noroeste 0 763.9 -- 80
2021-01-03 14:00:00 6.1 22 Oeste 36 Oeste 0 764.5 -- 81
2021-01-03 13:00:00 4.2 24 Oeste 38 Oeste 0 765.2 -- 86
2021-01-03 12:00:00 4.2 4 Oeste 11 Sur 0.4 765.8 -- 82
2021-01-03 11:00:00 4.2 7 Sudoeste 24 Oeste 0 766.3 -- 73
2021-01-03 10:00:00 3.9 21 Oeste 27 Oeste 0 766.5 -- 77
2021-01-03 09:00:00 3.8 22 Oeste 25 Oeste 0 765.7 -- 69
2021-01-03 08:00:00 3.5 23 Oeste 30 Oeste 0 765.1 -- 65
2021-01-03 07:00:00 3.4 26 Oeste 31 Noroeste 0 764.7 -- 61
2021-01-03 06:00:00 3.1 20 Noroeste 23 Noroeste 0 764.5 -- 48
2021-01-03 05:00:00 3.2 17 Noroeste 24 Oeste 0 764.5 -- 40
2021-01-03 04:00:00 3.3 20 Noroeste 22 Noroeste 0 764.9 -- 38
2021-01-03 03:00:00 3.7 16 Noroeste 18 Noroeste 0 765 -- 14
2021-01-03 02:00:00 4.3 7 Noroeste 14 Noroeste 0 765.1 -- 6
2021-01-03 01:00:00 3.6 15 Oeste 36 Noroeste 0 765.5 -- 4
2021-01-03 00:00:00 2.9 32 Noroeste 33 Noroeste 0 765.6 -- 11
2021-01-02 23:00:00 4.6 18 Noroeste 22 Oeste 0 766.2 -- 5
2021-01-02 22:00:00 4.7 10 Noroeste 18 Noroeste 0 766.1 -- 5
2021-01-02 21:00:00 4.6 22 Oeste 27 Oeste 0 765.8 -- 5
2021-01-02 20:00:00 4.1 23 Oeste 28 Oeste 0 765.6 -- 4
2021-01-02 19:00:00 4.1 23 Oeste 28 Oeste 0 765.3 -- 6
2021-01-02 18:00:00 5.1 23 Oeste 28 Oeste 0 765.4 -- 5
2021-01-02 17:00:00 6.1 18 Oeste 24 Oeste 0 765.5 -- 8
2021-01-02 16:00:00 6.5 12 Noroeste 23 Noroeste 0 765.5 -- 11
2021-01-02 15:00:00 7.1 20 Oeste 29 Oeste 0 765.6 -- 10
2021-01-02 14:00:00 6.9 12 Oeste 18 Oeste 0 765.9 -- 14
2021-01-02 13:00:00 6.6 9 Noroeste 15 Noroeste 0 766.5 -- 28